Regional Weather Roundup
Issued by NWS

Home | Current Version | Previous Version | Graphics & Text | Print | Product List | Glossary Off
Versions: 1 2 3 4 5 6 7 8 9 10 11 12 13 14 15 16 17 18 19 20 21 22 23 24 25 26 27 28 29 30 31 32 33 34 35 36 37 38 39 40 41 42 43 44 45 46 47 48 49 50

607
ASUS43 KTOP 240308
RWRKS

WEATHER ROUNDUP FOR KANSAS
NATIONAL WEATHER SERVICE GOODLAND KS
1000 PM CDT MON MAY 23 2016

NOTE:  "FAIR" INDICATES FEW OR NO CLOUDS BELOW 12,000 FEET WITH NO
SIGNIFICANT WEATHER AND/OR OBSTRUCTIONS TO VISIBILITY.

KSZ001>006-013>018-027>032-041>047-240400-
NORTHWEST KANSAS

CITY           SKY/WX    TMP DP  RH WIND       PRES   REMARKS
GOODLAND       CLEAR     60  51  72 NE7       29.82R
HAYS           CLEAR     70  61  73 SE8       29.77R
HILL CITY      CLEAR     68  63  84 CALM      29.77R
RUSSELL        CLEAR     69  65  86 SE12      29.75R
$$

KSZ061>065-074>080-084>089-240400-
SOUTHWEST KANSAS

CITY           SKY/WX    TMP DP  RH WIND       PRES   REMARKS
DODGE CITY     CLEAR     70  68  93 SE18G25   29.75R
ELKHART          N/A     69  54  58 SE15        N/A
GARDEN CITY    CLEAR     71  66  84 SE14      29.74R
GREAT BEND     CLOUDY    72  63  73 SE17      29.77R
LIBERAL        CLEAR     72  54  53 SE9       29.75R
PRATT          CLOUDY    68  64  87 SE13      29.79R
$$

KSZ066>073-081>083-090>101-240400-
SOUTHEAST KANSAS

CITY           SKY/WX    TMP DP  RH WIND       PRES   REMARKS
CHANUTE        CLEAR     65  61  87 SE8       29.87R
COFFEYVILLE    PTCLDY    65  63  93 SE9       29.87R
HUTCHINSON     CLOUDY    69  64  84 SE13      29.81R
MEDICINE LODGE   N/A     72  67  84 SE13G20   29.80R
NEWTON         CLOUDY    66  57  72 S14       29.86R
PARSONS        CLOUDY    65  62  90 SE6       29.88R
WICHITA INTL   CLOUDY    69  64  84 SE16      29.82R
WICHITA JABRA  CLOUDY    67  64  90 SE16G23   29.83R
WICHITA MCCONL CLOUDY    68  64  87 S14       29.83R
WINFIELD       CLOUDY    68  64  87 SE10      29.86R
$$

KSZ007>012-019>026-033>040-048>060-102>105-240400-
NORTHEAST KANSAS

CITY           SKY/WX    TMP DP  RH WIND       PRES   REMARKS
CONCORDIA      CLEAR     68  59  73 S15       29.78S
EMPORIA        CLEAR     64  61  90 SE10      29.84R
LAWRENCE         N/A    N/A N/A N/A MISG      29.86R
MANHATTAN      CLOUDY    69  60  73 SE6       29.82R
MARYSVILLE     CLOUDY    68  61  77 SE9       29.81R
OLATHE IND     PTCLDY    64  62  93 SE7       29.88R
OLATHE EXE     PTCLDY    61  59  93 S7        29.88R
SALINA         CLOUDY    71  61  70 S15       29.80R
TOPEKA BILLARD CLOUDY    65  61  87 E6        29.84S
TOPEKA FORBES  CLOUDY    64  61  90 SE7       29.84S
$$




USA.gov is the U.S. government's official web portal to all federal, state and local government web resources and services.